KC5LIO Weather Reports


time (UTC)temp
F
wind
direction
speed
knots
gust
knots
rain 1hr
in
rain 24hr
in
rain mn
in
humidity
%
barometer
mb
20260503233204 73 242 0.9 5.2 0.00 0.00 0.00 44 1016.8
20260503231704 75 314 2.6 4.3 0.00 0.00 0.00 41 1016.7
20260503230205 76 358 2.6 6.1 0.00 0.00 0.00 39 1016.8
20260503224705 76 278 2.6 7.0 0.00 0.00 0.00 41 1016.8
20260503223204 77 329 2.6 6.1 0.00 0.00 0.00 38 1016.8
20260503221704 77 260 3.5 5.2 0.00 0.00 0.00 38 1016.8
20260503220205 77 45 2.6 7.0 0.00 0.00 0.00 38 1016.9
20260503214705 77 242 3.5 6.1 0.00 0.00 0.00 40 1017.1
20260503211704 77 66 2.6 6.1 0.00 0.00 0.00 37 1017.3
20260503210205 77 262 4.3 7.8 0.00 0.00 0.00 38 1017.6
20260503204705 77 44 3.5 7.0 0.00 0.00 0.00 36 1017.9
20260503203206 77 270 2.6 7.8 0.00 0.00 0.00 37 1018.3
20260503201705 77 298 4.3 8.7 0.00 0.00 0.00 36 1018.3
20260503194705 77 83 4.3 6.1 0.00 0.00 0.00 36 1018.9
20260503193205 78 51 4.3 7.0 0.00 0.00 0.00 36 1019.0
20260503191705 77 275 4.3 7.0 0.00 0.00 0.00 37 1019.2
20260503190205 77 306 4.3 7.0 0.00 0.00 0.00 39 1019.6
20260503184704 77 31 5.2 8.7 0.00 0.00 0.00 39 1019.9
20260503183205 77 324 1.7 7.8 0.00 0.00 0.00 40 1020.1
20260503181704 77 350 2.6 7.8 0.00 0.00 0.00 38 1020.2
20260503180204 76 287 3.5 8.7 0.00 0.00 0.00 39 1020.4
20260503174704 77 267 2.6 8.7 0.00 0.00 0.00 40 1020.5
20260503173204 76 305 5.2 10.4 0.00 0.00 0.00 39 1020.5
20260503171705 76 27 1.7 7.0 0.00 0.00 0.00 39 1020.7
20260503170205 75 104 4.3 6.1 0.00 0.00 0.00 37 1020.9
20260503160205 74 8 5.2 11.3 0.00 0.00 0.00 40 1021.5
20260503150205 72 46 4.3 7.0 0.00 0.00 0.00 43 1021.8
20260503140204 68 75 1.7 4.3 0.00 0.00 0.00 61 1021.5
20260503130204 59 282 0.9 2.6 0.00 0.00 0.00 78 1020.9
20260503120204 47 4 0.9 1.7 0.00 0.00 0.00 91 1020.6
20260503110205 43 319 0.9 1.7 0.00 0.00 0.00 91 1019.9
20260503100205 43 270 0.0 1.7 0.00 0.00 0.00 90 1019.6
20260503090205 44 272 0.0 0.0 0.00 0.25 0.00 90 1019.1
20260503080205 45 68 0.0 0.0 0.00 0.41 0.00 90 1018.7
20260503071705 45 29 0.9 0.9 0.00 0.67 0.00 89 1018.5
20260503070204 46 24 0.0 0.0 0.00 0.70 0.00 89 1018.6
20260503054705 47 270 0.0 0.0 0.00 0.88 0.00 88 1018.1
20260503051704 48 112 0.0 0.0 0.00 1.09 0.00 88 1018.0
20260503050205 49 48 0.0 0.0 0.00 1.10 0.00 88 1017.9
20260503044704 49 338 0.0 0.9 0.00 1.10 1.10 88 1017.8
20260503043204 49 276 0.9 0.9 0.00 1.10 1.10 87 1017.9
20260503041704 49 292 0.0 0.0 0.00 1.10 1.10 86 1017.8
20260503040206 50 307 0.0 0.0 0.00 1.10 1.10 85 1017.7
20260503034705 50 292 0.0 0.0 0.00 1.10 1.10 85 1017.5
20260503033204 51 270 0.0 0.0 0.00 1.11 1.10 83 1017.4
20260503023204 54 270 0.0 0.0 0.00 1.37 1.10 75 1016.7
20260503021704 55 158 0.0 0.0 0.00 1.43 1.10 75 1016.6
20260503020205 57 158 0.0 0.0 0.00 1.52 1.10 72 1016.4
20260503014704 58 202 0.0 0.0 0.00 1.65 1.10 68 1016.2
20260503011704 62 267 0.9 2.6 0.00 1.75 1.10 60 1015.7
20260503010205 63 260 0.9 2.6 0.00 1.79 1.10 56 1015.5
20260503004704 64 228 2.6 6.1 0.00 1.82 1.10 54 1015.0
20260503003204 65 339 2.6 5.2 0.00 1.83 1.10 55 1014.8
20260503001705 66 316 2.6 7.0 0.00 1.87 1.10 52 1014.7
20260503000205 67 176 3.5 7.8 0.00 1.87 1.10 52 1014.3